Muskegon, MI

10:55 PM EST on December 10, 2019 (GMT -0500)
Muskegon County

Weather History for KMKG - August, 2019

Change the Weather History Date:

Thursday, August 29, 2019

  Actual Average Record
Temperature  
Mean Temperature 67 °F 68 °F  
Max Temperature 81 °F 77 °F 94 °F (1953)
Min Temperature 53 °F 59 °F 38 °F (1982)
Degree Days  
Heating Degree Days 0 1  
Month to date heating degree days 0 12  
Since 1 June heating degree days 58 89  
Since 1 July heating degree days 1 23  
Cooling Degree Days 2 4  
Month to date cooling degree days 174 159  
Year to date cooling degree days 545 495  
Since 1 June cooling degree days 542 466  
Growing Degree Days 17 (Base 50)    
Moisture  
Dew Point 59 °F    
Average Humidity 73    
Maximum Humidity 93    
Minimum Humidity 50    
Precipitation  
Precipitation 0.08 in 0.12 in 1.45 in (1932)
Month to date precipitation 2.16 3.16  
Year to date precipitation 27.13 20.35  
Snow  
Snow 0.00 in 0.00 in - ()
Month to date snowfall 0.0 0.0  
Since 1 June snowfall 0.0 0.0  
Since 1 July snowfall 0.0 0.0  
Snow Depth 0.00 in    
Sea Level Pressure  
Sea Level Pressure 29.84 in    
Wind  
Wind Speed 7 mph ()    
Max Wind Speed 25 mph    
Max Gust Speed 39 mph    
Visibility 9.4 miles    
Events Fog , Rain , Thunderstorm    
T = Trace of Precipitation, MM = Missing Value Source: Averaged Metar Reports

Daily Weather History Graph

Daily Weather History Graph

Search for Another Location

Airport or City:

Astronomy

Aug. 29, 2019 Rise Set
Actual Time 7:05 AM EDT 8:25 PM EDT
Civil Twilight 6:36 AM EDT 8:54 PM EDT
Nautical Twilight 6:00 AM EDT 9:30 PM EDT
Astronomical Twilight 5:22 AM EDT 10:07 PM EDT
Moon 5:46 AM EDT (8/29) 8:24 PM EDT (8/29)
Length of Visible Light 14h 18m
Length of Day
13h 19m
Waning Crescent, 1% of the Moon is Illuminated
Aug 29
Waning Crescent
Aug 30
New
Sep 5
First Quarter
Sep 14
Full
Sep 21
Last Quarter

Hourly Weather History & Observations

Time (EDT) Temp. Heat Index Dew Point Humidity Pressure Visibility Wind Dir Wind Speed Gust Speed Precip Events Conditions
12:55 AM 59.0 °F - 54.0 °F 83% 29.94 in 10.0 mi Calm Calm - N/A   Clear
1:55 AM 57.0 °F - 53.1 °F 87% 29.94 in 10.0 mi Calm Calm - N/A   Clear
2:55 AM 55.9 °F - 52.0 °F 87% 29.94 in 10.0 mi Calm Calm - N/A   Clear
3:55 AM 55.9 °F - 52.0 °F 87% 29.94 in 10.0 mi Calm Calm - 0.00 in Rain Light Rain
4:55 AM 55.0 °F - 52.0 °F 89% 29.94 in 10.0 mi Calm Calm - 0.00 in   Clear
5:55 AM 54.0 °F - 50.0 °F 86% 29.95 in 10.0 mi Calm Calm - N/A   Clear
6:55 AM 53.1 °F - 48.9 °F 86% 29.95 in 10.0 mi Calm Calm - N/A Fog Patches of Fog
7:55 AM 57.0 °F - 53.1 °F 87% 29.95 in 10.0 mi South 3.5 mph - N/A   Partly Cloudy
8:55 AM 69.1 °F - 57.9 °F 68% 29.94 in 10.0 mi SW 9.2 mph - N/A   Partly Cloudy
10:55 AM 73.0 °F - 55.9 °F 55% 29.91 in 10.0 mi SSW 18.4 mph 26.5 mph N/A   Partly Cloudy
12:55 PM 75.9 °F - 59.0 °F 56% 29.90 in 10.0 mi South 16.1 mph 26.5 mph N/A   Mostly Cloudy
1:55 PM 75.9 °F - 60.1 °F 58% 29.85 in 10.0 mi South 17.3 mph 27.6 mph N/A   Mostly Cloudy
2:55 PM 78.1 °F - 59.0 °F 52% 29.84 in 10.0 mi South 20.7 mph 29.9 mph N/A   Mostly Cloudy
3:55 PM 80.1 °F 80.9 °F 60.1 °F 50% 29.79 in 10.0 mi South 21.9 mph 38.0 mph N/A   Mostly Cloudy
4:55 PM 77.0 °F - 62.1 °F 60% 29.76 in 10.0 mi SSW 23.0 mph 35.7 mph N/A   Mostly Cloudy
5:46 PM 78.1 °F - 63.0 °F 60% 29.75 in 10.0 mi SSW 17.3 mph 33.4 mph N/A Thunderstorm Thunderstorm
5:55 PM 80.1 °F 81.5 °F 63.0 °F 56% 29.73 in 10.0 mi SSW 21.9 mph 33.4 mph N/A Thunderstorm Thunderstorm
6:13 PM 78.1 °F - 63.0 °F 60% 29.73 in 10.0 mi SSW 23.0 mph 36.8 mph N/A   Mostly Cloudy
6:36 PM 79.0 °F - 64.0 °F 60% 29.73 in 10.0 mi SSW 21.9 mph 33.4 mph N/A Thunderstorm Thunderstorm
6:55 PM 78.1 °F - 64.0 °F 62% 29.73 in 10.0 mi SSW 20.7 mph 32.2 mph N/A Thunderstorm Thunderstorm
7:05 PM 77.0 °F - 64.0 °F 64% 29.72 in 10.0 mi SSW 21.9 mph 33.4 mph N/A   Mostly Cloudy
7:19 PM 77.0 °F - 64.9 °F 66% 29.72 in 10.0 mi SW 20.7 mph 34.5 mph N/A Thunderstorm Thunderstorm
7:45 PM 75.9 °F - 64.9 °F 69% 29.76 in 10.0 mi West 15.0 mph 26.5 mph 0.00 in Rain , Thunderstorm Light Thunderstorms and Rain
8:11 PM 72.0 °F - 66.0 °F 81% 29.77 in 10.0 mi WNW 9.2 mph - 0.03 in Rain Light Rain
8:55 PM 71.1 °F - 64.0 °F 78% 29.79 in 10.0 mi NW 8.1 mph - 0.03 in   Scattered Clouds
9:55 PM 69.1 °F - 64.0 °F 84% 29.81 in 10.0 mi Calm Calm - N/A   Mostly Cloudy
10:55 PM 66.0 °F - 61.0 °F 84% 29.85 in 10.0 mi Calm Calm - N/A   Scattered Clouds
11:27 PM 63.0 °F - 61.0 °F 93% 29.88 in 1.8 mi SSW 3.5 mph - N/A   Scattered Clouds
11:36 PM 64.0 °F - 61.0 °F 90% 29.88 in 3.0 mi SSW 3.5 mph - N/A   Partly Cloudy
11:55 PM 63.0 °F - 60.1 °F 90% 29.88 in 6.0 mi WSW 4.6 mph - N/A   Scattered Clouds